Location: San Gennaro Vesuviano
(40.8833°N, 14.5333°E)
Time: 11:27:48
(UTC+00:00)

Cosmos 1943 - Pass Details

Date: 22 April 2021
Orbit: 834 x 849 km, 71.0° (Epoch: 10 May)

Event Time Altitude Azimuth Distance (km) Brightness Sun altitude
Rises 21:43:59 0° 335° (NNW) 3,393 7.4 -33.8°
Reaches altitude 10° 21:46:25 10° 335° (NNW) 2,456 6.4 -33.9°
Enters shadow 21:50:11 44° 329° (NNW) 1,152 4.2 -34.2°
